Hourly Data Report for June 20, 2012

All times are specified in Local Standard Time (LST). Add 1 hour to adjust for Daylight Saving Time where and when it is observed.

ABBOTSFORD A
BRITISH COLUMBIA

49°01'31.000" N
122°21'36.000" W
59.10 m
1100031
71108
YXX

Related Data

No related data is available for this station

Download Data

Hourly Data (June 2012)
Hourly Data Report for June 20, 2012
Temp Definition
°C
Dew Point Temp Definition
°C
Rel Hum Definition
%
Wind Dir Definition
10's deg

Wind Spd Definition
km/h
Visibility Definition
km
Stn Press Definition
kPa
Hmdx Definition


Wind Chill Definition


Weather Definition


TIME
00:00 Legend Double Dagger 9.9 8.7 92 34 4 10.0 101.48     LegendNANA
01:00 Legend Double Dagger 9.0 8.1 94 1 4 10.0 101.50     Clear
02:00 Legend Double Dagger 9.2 8.3 94 2 4 10.0 101.49     LegendNANA
03:00 Legend Double Dagger 8.6 7.7 94 2 5 10.0 101.46     LegendNANA
04:00 Legend Double Dagger 8.6 7.7 94 2 5 10.0 101.44     Mainly Clear
05:00 Legend Double Dagger 9.2 8.3 94 3 9 10.0 101.44     LegendNANA
06:00 Legend Double Dagger 11.3 9.2 87 4 8 10.0 101.43     LegendNANA
07:00 Legend Double Dagger 13.1 10.1 82 5 5 10.0 101.38     Mainly Clear
08:00 Legend Double Dagger 15.1 10.4 73 4 9 10.0 101.32     LegendNANA
09:00 Legend Double Dagger 16.9 11.7 71 1 7 10.0 101.26     LegendNANA
10:00 Legend Double Dagger 18.4 10.6 60 6 5 10.0 101.17     Mostly Cloudy
11:00 Legend Double Dagger 19.0 10.7 58 33 4 10.0 101.11     LegendNANA
12:00 Legend Double Dagger 20.2 10.4 53 10 4 10.0 101.05     LegendNANA
13:00 Legend Double Dagger 21.9 12.6 55 9 6 10.0 100.98     Mostly Cloudy
14:00 Legend Double Dagger 22.4 9.4 43 18 4 10.0 100.92     LegendNANA
15:00 Legend Double Dagger 22.5 9.8 44 19 10 10.0 100.84     LegendNANA
16:00 Legend Double Dagger 23.0 11.3 47 26 4 10.0 100.79 25   Mostly Cloudy
17:00 Legend Double Dagger 22.5 9.8 44 28 11 10.0 100.73     LegendNANA
18:00 Legend Double Dagger 22.1 10.7 48 26 11 10.0 100.70     LegendNANA
19:00 Legend Double Dagger 20.9 11.9 56 26 9 10.0 100.68     Mostly Cloudy
20:00 Legend Double Dagger 19.4 12.0 62 26 5 10.0 100.64     LegendNANA
21:00 Legend Double Dagger 16.6 12.0 74 22 11 10.0 100.67     LegendNANA
22:00 Legend Double Dagger 15.3 11.5 78 18 8 10.0 100.68     Mostly Cloudy
23:00 Legend Double Dagger 14.0 11.7 86 21 10 10.0 100.71     LegendNANA

Notes on Data Quality.

Legend

  • E = Estimated
  • M = Missing
  • NA = Not Available
  • ‡ = Partner data that is not subject to review by the National Climate Archives
Date modified: